This is the latest recevied weather packets stored in our database for station/object KC1OEK-13. If no packets are shown the sender has not sent any weather packets the latest 10 day(s).
| Time | Temp. | Humidity | Pressure | Rain* | Wind** | Luminosity | Snow |
|---|---|---|---|---|---|---|---|
| 1787776546 | 26.11° C | 56% | 1019.7 hPa | 0 mm | - | 380 W/m² | - |
| 1787776244 | 26.11° C | 57% | 1019.7 hPa | 0 mm | - | 394 W/m² | - |
| 1787775943 | 26.67° C | 59% | 1019.8 hPa | 0 mm | - | 413 W/m² | - |
| 1787775638 | 26.67° C | 56% | 1019.7 hPa | 0 mm | - | 430 W/m² | - |
| 1787775337 | 26.67° C | 57% | 1019.7 hPa | 0 mm | - | 437 W/m² | - |
| 1787775031 | 27.22° C | 58% | 1019.6 hPa | 0 mm | - | 443 W/m² | - |
| 1787774730 | 26.67° C | 57% | 1019.7 hPa | 0 mm | - | 459 W/m² | - |
| 1787774425 | 26.67° C | 57% | 1019.7 hPa | 0 mm | - | 477 W/m² | - |
| 1787774120 | 26.67° C | 55% | 1019.8 hPa | 0 mm | - | 496 W/m² | - |
| 1787773818 | 27.22° C | 56% | 1019.7 hPa | 0 mm | - | 512 W/m² | - |
| 1787773517 | 26.67° C | 57% | 1019.9 hPa | 0 mm | - | 522 W/m² | - |
| 1787773214 | 27.22° C | 56% | 1019.8 hPa | 0 mm | - | 532 W/m² | - |
| 1787772908 | 26.67° C | 59% | 1019.9 hPa | 0 mm | - | 558 W/m² | - |
| 1787772603 | 26.67° C | 57% | 1020 hPa | 0 mm | - | 575 W/m² | - |
| 1787772297 | 26.67° C | 60% | 1019.9 hPa | 0 mm | - | 487 W/m² | - |
| 1787771996 | 27.22° C | 58% | 1019.9 hPa | 0 mm | - | 611 W/m² | - |
| 1787771691 | 26.11° C | 61% | 1019.9 hPa | 0 mm | - | 631 W/m² | - |
| 1787771390 | 26.11° C | 59% | 1020.1 hPa | 0 mm | - | 644 W/m² | - |
| 1787771084 | 27.22° C | 57% | 1020 hPa | 0 mm | - | 620 W/m² | - |
| 1787770779 | 27.22° C | 57% | 1020.3 hPa | 0 mm | - | 663 W/m² | - |
| 1787770478 | 27.22° C | 56% | 1020.2 hPa | 0 mm | - | 158 W/m² | - |
| 1787770177 | 26.67° C | 59% | 1020.1 hPa | 0 mm | - | 683 W/m² | - |
| 1787769876 | 27.22° C | 56% | 1020.1 hPa | 0 mm | - | 714 W/m² | - |
| 1787769571 | 27.22° C | 57% | 1020.2 hPa | 0 mm | - | 744 W/m² | - |
| 1787769269 | 27.22° C | 57% | 1020.2 hPa | 0 mm | - | 736 W/m² | - |
* Rain latest hour (hover to see other rain measurements)
** Current wind speed in m/s (hover to see current wind gust speed)